Date String (YYYY-MM-DD hh:mm:ss) UTC,Instrument flags,absolute air pressure of the measurement (hPa),sample flow rate (lpm),inlet stack bypass flow (lpm),air temperature of the measurement (°C),ambient temperature measured by the external sensor (°C),aerosol sample conditioner tube jacket temperature (°C),OPC LED temperature (°C),internal box temperature (°C),relative humidity of the measurement (%),span deviation,mass concentration of particles derived from Lorenz-Mie calculation of OPC scattering (μg/m³),mass concentration of particles derived from Lorenz-Mie calculation of OPC scattering (μg/m³),mass concentration of particles derived from Lorenz-Mie calculation of OPC scattering (μg/m³)
DateTimeUTC,F1_M11,P_M11,Q1_M11,Q2_M11,T1_M11,T2_M11,T3_M11,T4_M11,T5_M11,U1_M11,ZSPAN_M11,X0_M11,X2_M11,X1_M11
2024-06-11 19:00:00,SystemResetWarning,0830.8,5.00,000.00,029.3,028.9,000.0,037.4,031.2,036.0,0000.0,0016.70,0007.22,0006.10
2024-06-11 19:01:00,SystemResetWarning,0830.8,5.01,000.00,029.4,029.0,000.0,037.4,031.3,036.3,0000.0,0016.10,0007.22,0006.11
2024-06-11 19:02:00,SystemResetWarning,0830.7,4.99,000.00,029.4,028.1,000.0,037.5,030.8,035.8,0000.0,0016.77,0007.23,0006.09
2024-06-11 19:03:00,SystemResetWarning,0830.6,5.00,000.00,029.0,026.2,000.0,037.5,030.0,037.3,0000.0,0016.37,0007.27,0006.09
2024-06-11 19:04:00,SystemResetWarning,0830.6,5.01,000.00,028.8,025.7,000.0,037.5,029.6,037.5,0000.0,0016.15,0007.28,0006.07
2024-06-11 19:05:00,SystemResetWarning,0830.6,5.01,000.00,028.6,026.0,000.0,037.4,029.7,037.3,0000.0,0016.11,0007.33,0006.08
2024-06-11 19:06:00,SystemResetWarning,0830.7,4.98,000.00,028.6,026.5,000.0,037.3,030.0,036.9,0000.0,0015.85,0007.33,0006.09
2024-06-11 19:07:00,SystemResetWarning,0830.6,5.00,000.00,028.7,026.9,000.0,037.3,030.2,036.9,0000.0,0015.98,0007.29,0006.10
2024-06-11 19:08:00,SystemResetWarning,0830.7,5.00,000.00,028.7,027.3,000.0,037.2,030.4,037.3,0000.0,0016.24,0007.27,0006.09
2024-06-11 19:09:00,SystemResetWarning,0830.7,5.01,000.00,028.8,027.7,000.0,037.2,030.5,037.2,0000.0,0016.45,0007.31,0006.08
2024-06-11 19:10:00,SystemResetWarning,0830.7,4.99,000.00,028.9,028.0,000.0,037.2,030.7,036.3,0000.0,0016.05,0007.35,0006.08
2024-06-11 19:11:00,SystemResetWarning,0830.7,5.00,000.00,028.9,028.2,000.0,037.2,030.8,036.0,0000.0,0016.35,0007.35,0006.09
2024-06-11 19:12:00,SystemResetWarning,0830.7,5.00,000.00,029.0,028.4,000.0,037.2,030.9,035.6,0000.0,0016.85,0007.33,0006.10
2024-06-11 19:13:00,SystemResetWarning,0830.7,5.00,000.00,029.1,028.5,000.0,037.3,031.0,035.0,0000.0,0016.01,0007.29,0006.10
2024-06-11 19:14:00,SystemResetWarning,0830.7,5.00,000.00,029.2,028.7,000.0,037.3,031.1,034.7,0000.0,0015.92,0007.19,0006.09
2024-06-11 19:15:00,SystemResetWarning,0830.7,5.00,000.00,029.2,028.8,000.0,037.4,031.2,034.4,0000.0,0015.84,0007.16,0006.10
2024-06-11 19:16:00,SystemResetWarning,0830.6,4.99,000.00,029.3,028.9,000.0,037.4,031.2,034.1,0000.0,0016.54,0007.17,0006.10
2024-06-11 19:17:00,SystemResetWarning,0830.6,4.99,000.00,029.4,028.7,000.0,037.4,031.1,034.2,0000.0,0017.32,0007.19,0006.10
2024-06-11 19:18:00,SystemResetWarning,0830.5,5.00,000.00,029.2,027.0,000.0,037.5,030.3,034.5,0000.0,0017.11,0007.21,0006.10
2024-06-11 19:19:00,SystemResetWarning,0830.5,5.02,000.00,028.9,026.5,000.0,037.5,030.0,035.3,0000.0,0016.67,0007.23,0006.10
2024-06-11 19:20:00,SystemResetWarning,0830.5,4.99,000.00,028.9,026.8,000.0,037.4,030.1,035.4,0000.0,0016.69,0007.25,0006.11
2024-06-11 19:21:00,SystemResetWarning,0830.6,5.00,000.00,028.9,027.2,000.0,037.4,030.3,035.1,0000.0,0016.30,0007.23,0006.12
2024-06-11 19:22:00,SystemResetWarning,0830.6,5.00,000.00,028.9,027.5,000.0,037.3,030.5,034.3,0000.0,0016.23,0007.29,0006.13
2024-06-11 19:23:00,SystemResetWarning,0830.6,5.01,000.00,029.0,027.8,000.0,037.3,030.7,034.2,0000.0,0015.31,0007.30,0006.15
2024-06-11 19:24:00,SystemResetWarning,0830.6,5.00,000.00,029.0,028.1,000.0,037.3,030.8,034.6,0000.0,0015.48,0007.34,0006.15
2024-06-11 19:25:00,SystemResetWarning,0830.5,4.99,000.00,029.1,028.3,000.0,037.3,030.9,034.4,0000.0,0015.71,0007.38,0006.17
2024-06-11 19:26:00,SystemResetWarning,0830.5,5.00,000.00,029.2,028.5,000.0,037.4,031.0,034.4,0000.0,0015.81,0007.37,0006.16
2024-06-11 19:27:00,SystemResetWarning,0830.6,5.00,000.00,029.3,028.7,000.0,037.4,031.1,035.0,0000.0,0015.54,0007.34,0006.15
2024-06-11 19:28:00,SystemResetWarning,0830.6,5.00,000.00,029.3,028.9,000.0,037.4,031.2,034.2,0000.0,0015.22,0007.28,0006.14
2024-06-11 19:29:00,SystemResetWarning,0830.6,5.00,000.00,029.4,029.0,000.0,037.5,031.3,034.2,0000.0,0015.32,0007.33,0006.13
2024-06-11 19:30:00,SystemResetWarning,0830.4,4.99,000.00,029.4,028.5,000.0,037.5,031.0,033.9,0000.0,0016.41,0007.34,0006.13
2024-06-11 19:31:00,SystemResetWarning,0830.4,5.00,000.00,029.1,026.6,000.0,037.6,030.1,034.6,0000.0,0016.11,0007.31,0006.12
2024-06-11 19:32:00,SystemResetWarning,0830.4,5.01,000.00,028.8,025.8,000.0,037.6,029.6,035.3,0000.0,0017.29,0007.29,0006.12
2024-06-11 19:33:00,SystemResetWarning,0830.4,5.00,000.00,028.7,026.0,000.0,037.5,029.6,035.8,0000.0,0018.10,0007.26,0006.13
2024-06-11 19:34:00,SystemResetWarning,0830.4,4.99,000.00,028.7,026.4,000.0,037.4,029.9,035.3,0000.0,0018.04,0007.22,0006.10
2024-06-11 19:35:00,SystemResetWarning,0830.4,5.00,000.00,028.7,026.9,000.0,037.3,030.2,035.6,0000.0,0017.98,0007.21,0006.08
2024-06-11 19:36:00,SystemResetWarning,0830.4,5.00,000.00,028.7,027.3,000.0,037.3,030.4,036.2,0000.0,0017.87,0007.18,0006.08
2024-06-11 19:37:00,SystemResetWarning,0830.4,5.00,000.00,028.8,027.6,000.0,037.3,030.5,036.0,0000.0,0017.94,0007.18,0006.07
2024-06-11 19:38:00,SystemResetWarning,0830.4,5.00,000.00,028.9,027.9,000.0,037.3,030.7,035.5,0000.0,0017.74,0007.20,0006.06
2024-06-11 19:39:00,SystemResetWarning,0830.4,5.00,000.00,029.0,028.2,000.0,037.3,030.8,034.9,0000.0,0017.79,0007.18,0006.05
2024-06-11 19:40:00,SystemResetWarning,0830.5,5.01,000.00,029.0,028.4,000.0,037.3,030.9,035.0,0000.0,0017.66,0007.13,0006.04
2024-06-11 19:41:00,SystemResetWarning,0830.4,4.99,000.00,029.1,028.6,000.0,037.3,031.0,034.4,0000.0,0016.32,0007.10,0006.03
2024-06-11 19:42:00,SystemResetWarning,0830.4,5.00,000.00,029.2,028.7,000.0,037.3,031.1,033.4,0000.0,0016.95,0007.06,0006.02
2024-06-11 19:43:00,SystemResetWarning,0830.4,5.00,000.00,029.3,028.9,000.0,037.4,031.2,033.3,0000.0,0016.84,0007.04,0006.01
2024-06-11 19:44:00,SystemResetWarning,0830.3,5.00,000.00,029.3,029.0,000.0,037.4,031.3,033.2,0000.0,0016.18,0007.01,0005.99
2024-06-11 19:45:00,SystemResetWarning,0830.3,5.00,000.00,029.4,029.0,000.0,037.5,031.2,033.8,0000.0,0015.91,0007.01,0005.98
2024-06-11 19:46:00,SystemResetWarning,0830.3,4.98,000.00,029.3,027.4,000.0,037.5,030.5,034.0,0000.0,0015.91,0007.02,0005.98
2024-06-11 19:47:00,SystemResetWarning,0830.3,5.02,000.00,028.9,025.9,000.0,037.6,029.7,035.0,0000.0,0015.88,0007.05,0005.99
2024-06-11 19:48:00,SystemResetWarning,0830.3,5.00,000.00,028.7,025.8,000.0,037.5,029.6,035.9,0000.0,0015.66,0007.06,0006.00
2024-06-11 19:49:00,SystemResetWarning,0830.3,5.00,000.00,028.6,026.2,000.0,037.4,029.7,035.8,0000.0,0016.22,0007.07,0006.00
2024-06-11 19:50:00,SystemResetWarning,0830.3,5.00,000.00,028.6,026.6,000.0,037.3,030.0,034.9,0000.0,0016.54,0007.11,0006.00
2024-06-11 19:51:00,SystemResetWarning,0830.3,5.00,000.00,028.7,027.0,000.0,037.2,030.3,035.0,0000.0,0017.12,0007.15,0006.01
2024-06-11 19:52:00,SystemResetWarning,0830.3,4.99,000.00,028.8,027.4,000.0,037.2,030.4,034.4,0000.0,0017.51,0007.18,0006.00
2024-06-11 19:53:00,SystemResetWarning,0830.3,4.99,000.00,028.8,027.8,000.0,037.2,030.6,035.3,0000.0,0016.81,0007.20,0005.99
2024-06-11 19:54:00,SystemResetWarning,0830.3,4.99,000.00,028.9,028.1,000.0,037.2,030.7,034.6,0000.0,0015.93,0007.15,0005.98
2024-06-11 19:55:00,SystemResetWarning,0830.2,5.00,000.00,029.0,028.3,000.0,037.2,030.8,033.3,0000.0,0015.24,0007.10,0005.95
2024-06-11 19:56:00,SystemResetWarning,0830.2,5.00,000.00,029.1,028.5,000.0,037.2,030.9,033.4,0000.0,0016.05,0007.10,0005.93
2024-06-11 19:57:00,SystemResetWarning,0830.3,5.01,000.00,029.1,028.7,000.0,037.3,031.0,033.3,0000.0,0016.24,0007.11,0005.91
2024-06-11 19:58:00,SystemResetWarning,0830.2,4.99,000.00,029.2,028.8,000.0,037.3,031.1,033.3,0000.0,0016.36,0007.08,0005.88
2024-06-11 19:59:00,SystemResetWarning,0830.3,5.00,000.00,029.3,028.9,000.0,037.4,031.2,032.9,0000.0,0017.07,0007.04,0005.84
